      2   12 14.84  +27 30.6    1.413   0.766    52.2/ 99    31.5   43.0    7.6  351/5.00   +15.5  247.0

      3   12 18.71  +27 22.5    1.381   0.746    54.9/100    31.7   44.8    7.4  351/5.28   +15.5  247.2

      4   12 22.76  +27 13.0    1.349   0.727    57.8/101    31.9   46.6    7.3  351/5.59   +15.6  247.4

      5   12 27.01  +27 01.9    1.316   0.708    61.0/102    32.1   48.6    7.1  352/5.92   +15.6  247.6

      6   12 31.47  +26 49.0    1.283   0.689    64.6/103    32.2   50.7    6.9  352/6.26   +15.5  247.8

      7   12 36.16  +26 33.9    1.249   0.670    68.5/105    32.3   52.9    6.7  353/6.64   +15.4  248.1

      8   12 41.09  +26 16.4    1.216   0.652    72.9/106    32.4   55.2    6.6  353/7.04   +15.2  248.3

      9   12 46.29  +25 56.0    1.182   0.633    77.7/107    32.4   57.7    6.4  354/7.47   +14.9  248.5

     10   12 51.77  +25 32.2    1.148   0.615    83.1/109    32.3   60.3    6.2  355/7.93   +14.6  248.8

     11   12 57.54  +25 04.6    1.114   0.597    89.0/111    32.2   63.1    6.0  356/8.42   +14.1  249.1

     12   13 03.64  +24 32.5    1.081   0.579    95.7/113    32.0   66.1    5.8  357/8.94   +13.6  249.4

     13   13 10.08  +23 55.2    1.047   0.561   103.0/115    31.8   69.3    5.6  358/9.50   +12.9  249.7

     14   13 16.88  +23 11.9    1.014   0.544   111.2/116    31.4   72.6    5.4  360/10.1   +12.1  250.0

     15   13 24.05  +22 21.7    0.981   0.528   120.2/119    30.9   76.2    5.2    1/10.7   +11.2  250.4

     16   13 31.61  +21 23.6    0.949   0.512   130.2/121    30.4   80.0    5.0    3/11.3   +10.1  250.9

     17   13 39.57  +20 16.5    0.918   0.496   141.0/123    29.7   84.0    4.8    5/12.0    +8.9  251.4

     18   13 47.92  +18 59.2    0.887   0.482   152.8/125    28.9   88.2    4.6    8/12.6    +7.5  252.0

     19   13 56.66  +17 30.5    0.858   0.468   165.4/127    28.0   92.6    4.4   11/13.2    +5.8  252.6

     20   14 05.76  +15 49.4    0.831   0.455   178.5/130    27.0   97.1    4.2   14/13.8    +4.0  253.4

     21   14 15.20  +13 54.8    0.805   0.443   191.9/132    25.9  101.8    4.0   18/14.4    +2.0  254.3

     22   14 24.93  +11 46.1    0.782   0.433   205.0/134    24.7  106.4    3.8   22/14.8    -0.3  255.3

     23   14 34.88  +09 22.9    0.762   0.424   217.3/136    23.5  110.8    3.7   28/15.1    -2.7  256.5

     24   14 44.98  +06 45.7    0.745   0.416   227.9/138    22.3  114.9    3.6   34/15.4    -5.3  257.8

     25   14 55.13  +03 55.5    0.732   0.410   236.2/140    21.3  118.4    3.5   41/15.5    -8.1  259.3

     26   15 05.24  +00 54.2    0.722   0.406   241.4/142    20.5  121.0    3.4   49/15.5   -10.9  260.9

     27   15 15.19  -02 15.5    0.717   0.403   243.1/143    20.0  122.6    3.3   57/15.5   -13.8  262.8

     28   15 24.90  -05 30.4    0.715   0.402   241.0/145    19.9  123.0    3.3   66/15.5   -16.7  264.8

     29   15 34.26  -08 47.1    0.719   0.403   235.3/146    20.1  122.0    3.3   75/15.5   -19.5  266.9

     30   15 43.21  -12 01.9    0.726   0.406   226.5/147    20.8  119.9    3.4   83/15.5   -22.2  269.2

     31   15 51.69  -15 11.7    0.737   0.411   215.1/148    21.7  116.9    3.5   90/15.4   -24.7  271.5

Nov.  1   15 59.65  -18 13.9    0.752   0.417   202.0/149    22.7  113.1    3.6   96/15.3   -26.9  274.0

                    m1 =  8.0 + 5 log △ + 10.0 log r



2007/        α  (2000) δ      △      r    Daily motion  Elong. Phase    m1    PA/Tail    薄暮終了時 

 19h JST    h  m       。  ,        AU      AU      ,     。     。      。      等    。  。       h。    A 。 

Sept.20   11 37.78  +28 09.6    1.786   1.002    32.0/ 91    27.1   27.1    9.3  354/2.66    +7.8  119.1

     21   11 40.20  +28 08.7    1.758   0.983    33.0/ 92    27.5   28.1    9.2  353/2.79    +7.8  119.1

     22   11 42.69  +28 07.6    1.730   0.965    34.1/ 92    27.9   29.1    9.0  353/2.93    +7.8  119.1

     23   11 45.27  +28 06.3    1.701   0.946    35.3/ 92    28.3   30.2    8.9  352/3.07    +7.8  119.1

     24   11 47.94  +28 04.7    1.672   0.927    36.6/ 93    28.7   31.3    8.8  352/3.23    +7.8  119.0

     25   11 50.70  +28 02.8    1.643   0.908    38.0/ 93    29.0   32.4    8.7  352/3.39    +7.9  119.0

     26   11 53.56  +28 00.4    1.613   0.888    39.4/ 94    29.4   33.7    8.5  351/3.56    +7.9  118.9

     27   11 56.53  +27 57.6    1.583   0.869    41.0/ 94    29.8   34.9    8.4  351/3.75    +8.0  118.8

     28   11 59.61  +27 54.3    1.552   0.850    42.7/ 95    30.1   36.3    8.3  351/3.95    +8.0  118.7

     29   12 02.82  +27 50.3    1.521   0.831    44.6/ 96    30.5   37.7    8.1  351/4.16    +8.1  118.5

     30   12 06.16  +27 45.6    1.490   0.812    46.6/ 97    30.8   39.1    8.0  351/4.39    +8.2  118.4

Oct.  1   12 09.64  +27 40.1    1.459   0.793    48.7/ 97    31.1   40.7    7.8  351/4.63    +8.4  118.1

      2   12 13.28  +27 33.6    1.427   0.774    51.1/ 98    31.3   42.3    7.7  351/4.89    +8.5  117.9

      3   12 17.07  +27 26.0    1.395   0.754    53.7/ 99    31.6   44.0    7.5  351/5.16    +8.6  117.6

      4   12 21.05  +27 17.1    1.362   0.735    56.5/100    31.8   45.8    7.3  351/5.46    +8.8  117.3

      5   12 25.22  +27 06.7    1.329   0.716    59.7/101    32.0   47.8    7.2  352/5.78    +9.0  117.0

      6   12 29.59  +26 54.6    1.296   0.697    63.1/103    32.2   49.8    7.0  352/6.12    +9.2  116.6

      7   12 34.18  +26 40.5    1.263   0.678    66.9/104    32.3   51.9    6.8  352/6.48    +9.5  116.1

      8   12 39.01  +26 24.0    1.230   0.660    71.0/105    32.4   54.2    6.6  353/6.87    +9.7  115.6

      9   12 44.09  +26 04.9    1.196   0.641    75.7/107    32.4   56.6    6.5  354/7.29   +10.0  115.0

     10   12 49.45  +25 42.6    1.162   0.622    80.8/108    32.4   59.2    6.3  355/7.74   +10.3  114.3

     11   12 55.10  +25 16.6    1.129   0.604    86.5/110    32.3   61.9    6.1  355/8.21   +10.6  113.6

     12   13 01.06  +24 46.5    1.095   0.586    92.8/112    32.1   64.8    5.9  356/8.72   +11.0  112.7

     13   13 07.36  +24 11.4    1.061   0.569    99.8/114    31.9   67.9    5.7  358/9.26   +11.3  111.7

     14   13 14.00  +23 30.7    1.028   0.551   107.7/116    31.6   71.2    5.5  359/9.83   +11.7  110.6

     15   13 21.02  +22 43.5    0.995   0.535   116.3/118    31.1   74.7    5.3    1/10.4   +12.1  109.4

     16   13 28.42  +21 48.9    0.962   0.518   125.9/120    30.6   78.4    5.1    2/11.1   +12.5  108.0

     17   13 36.20  +20 45.6    0.931   0.503   136.4/122    30.0   82.3    4.9    4/11.7   +12.9  106.4

     18   13 44.39  +19 32.7    0.900   0.488   147.8/124    29.2   86.4    4.7    7/12.3   +13.3  104.7

     19   13 52.97  +18 08.9    0.870   0.474   160.1/126    28.4   90.8    4.5   10/13.0   +13.7  102.7

     20   14 01.93  +16 33.1    0.842   0.460   173.0/129    27.4   95.2    4.3   13/13.6   +14.1  100.5

     21   14 11.23  +14 44.3    0.816   0.448   186.3/131    26.3   99.8    4.1   16/14.2   +14.4   98.0

     22   14 20.85  +12 41.5    0.792   0.437   199.6/133    25.2  104.4    3.9   20/14.6   +14.7   95.3

     23   14 30.72  +10 24.3    0.770   0.427   212.3/135    24.0  109.0    3.7   25/15.0   +14.8   92.3

     24   14 40.76  +07 52.9    0.752   0.419   223.7/137    22.8  113.2    3.6   31/15.3   +14.9   89.1

     25   14 50.90  +05 07.9    0.737   0.412   233.1/139    21.7  117.0    3.5   38/15.4   +14.8   85.7

     26   15 01.04  +02 11.0    0.726   0.407   239.7/141    20.8  120.0    3.4   45/15.5   +14.5   82.2

     27   15 11.07  -00 55.6    0.718   0.404   242.9/143    20.1  122.1    3.3   54/15.5   +14.1   78.5

     28   15 20.89  -04 08.8    0.715   0.402   242.3/144    19.9  123.0    3.3   62/15.5   +13.5   74.8

     29   15 30.41  -07 25.2    0.717   0.403   238.1/146    20.0  122.6    3.3   71/15.5   +12.8   71.1

     30   15 39.54  -10 41.2    0.722   0.405   230.5/147    20.5  120.9    3.4   79/15.5   +11.9   67.5

     31   15 48.22  -13 53.4    0.732   0.409   220.1/148    21.3  118.2    3.4   87/15.5   +10.9   64.1

Nov.  1   15 56.39  -16 59.1    0.745   0.414   207.6/149    22.3  114.7    3.5   94/15.4    +9.7   60.9

                    m1 =  8.0 + 5 log △ + 10.0 log r

NAKANO

         **** Don't distribute anyone except personal use only ****

                (C) Copyright 2007 OAA/ComputingSection

write mail from CFAD0::NAKANO on 2007-09-21 02:56:46(JST).

 

    C/2007 F1 (LONEOS)

Epoch 2007 Oct. 27.0 TT = JDT 2454400.5  

T 2007 Oct. 28.74345 TT                                 Nakano

q   0.4022878            (2000.0)            P               Q

z  -0.0002559      Peri.  153.71358     +0.91379801     +0.39064370

 +/-0.0000484      Node   172.88679     -0.08284785     -0.08881245

e   1.0001029      Incl.  116.07828     +0.39762977     -0.91624770

From 120 observations 2007 Mar. 19-July 7, mean residual 0".79.

   (1/a)org.= +0.000782, (1/a)fut.= -0.000081 (+/-0.000048), Q= 6.



NAKANO

         **** Don't distribute anyone except personal use only ****

                (C) Copyright 2007 OAA/ComputingSection

write mail from CFAD0::NAKANO on 2007-08-13 06:05:09(JST).

 



 

    C/2007 F1 (LONEOS)

Epoch 2007 Oct. 27.0 TT = JDT 2454400.5  

T 2007 Oct. 28.67532 TT                                 Nakano

q   0.4018244            (2000.0)            P               Q

z  -0.0003094      Peri.  153.72897     +0.91388556     +0.39039488

 +/-0.0000784      Node   172.87891     -0.08324226     -0.08832226

e   1.0001243      Incl.  116.04499     +0.39734608     -0.91640112

From 119 observations 2007 Mar. 19-May 19, mean residual 0".81.

   (1/a)org.= +0.000729, (1/a)fut.= -0.000134 (+/-0.000078), Q= 5.



NAKANO

         **** Don't distribute anyone except personal use only ****

                (C) Copyright 2007 OAA/ComputingSection

write mail from CFAD0::NAKANO on 2007-06-06 06:36:40(JST).

 



    C/2007 F1 (LONEOS)

T 2007 Oct. 28.74223 TT                                 Nakano

q   0.4020886            (2000.0)            P               Q

